• In Uzbekistan
  • List of Countries
  • For 7 days
  • Water Temperature
  • Satellite Maps
  • Weather Map
  • Weather Widgets
  • user-avatar
    Login

    Hourly Weather Samos

    Today, 21 November, Tuesday

    Time Temperature Precipitation Wind Pressure Humidity
    00:00 +3°C° 0 mm 10 mps 719 mmHg 78%
    01:00 +2°C° 0 mm 10 mps 719 mmHg 77%
    02:00 +2°C° 0 mm 9 mps 719 mmHg 75%
    03:00 +1°C° 0 mm 9 mps 720 mmHg 75%
    04:00 +1°C° 0 mm 8 mps 720 mmHg 75%
    05:00 +1°C° 0 mm 8 mps 721 mmHg 75%
    06:00 +2°C° 0 mm 7 mps 721 mmHg 74%
    07:00 +2°C° 0 mm 7 mps 722 mmHg 73%
    08:00 +2°C° 0 mm 6 mps 722 mmHg 71%
    09:00 +3°C° 0 mm 6 mps 722 mmHg 64%
    10:00 +4°C° 0 mm 6 mps 723 mmHg 57%
    11:00 +5°C° 0 mm 6 mps 723 mmHg 49%
    12:00 +7°C° 0 mm 6 mps 723 mmHg 46%
    13:00 +7°C° 0 mm 6 mps 723 mmHg 42%
    14:00 +8°C° 0 mm 5 mps 723 mmHg 39%
    15:00 +7°C° 0 mm 5 mps 723 mmHg 41%
    16:00 +6°C° 0 mm 5 mps 723 mmHg 44%
    17:00 +5°C° 0 mm 5 mps 723 mmHg 47%
    18:00 +3°C° 0 mm 5 mps 723 mmHg 49%
    19:00 +3°C° 0 mm 5 mps 724 mmHg 51%
    20:00 +2°C° 0 mm 5 mps 724 mmHg 53%
    21:00 +3°C° 0 mm 4 mps 724 mmHg 54%
    22:00 +3°C° 0 mm 4 mps 724 mmHg 56%
    23:00 +3°C° 0 mm 4 mps 724 mmHg 57%

    Tomorrow, 22 November, Wednesday

    Time Temperature Precipitation Wind Pressure Humidity
    00:00 +1°C° 0 mm 4 mps 724 mmHg 58%
    01:00 +2°C° 0 mm 3 mps 724 mmHg 59%
    02:00 +2°C° 0 mm 3 mps 724 mmHg 59%
    03:00 +2°C° 0 mm 3 mps 724 mmHg 59%
    04:00 +1°C° 0 mm 3 mps 724 mmHg 59%
    05:00 +1°C° 0 mm 3 mps 724 mmHg 58%
    06:00 +1°C° 0 mm 3 mps 724 mmHg 56%
    07:00 +2°C° 0 mm 3 mps 724 mmHg 55%
    08:00 +2°C° 0 mm 3 mps 724 mmHg 53%
    09:00 +4°C° 0 mm 3 mps 724 mmHg 46%
    10:00 +7°C° 0 mm 2 mps 725 mmHg 39%
    11:00 +10°C° 0 mm 2 mps 725 mmHg 32%
    12:00 +10°C° 0 mm 2 mps 725 mmHg 32%
    13:00 +12°C° 0 mm 2 mps 724 mmHg 31%
    14:00 +13°C° 0 mm 2 mps 724 mmHg 30%
    15:00 +12°C° 0 mm 2 mps 724 mmHg 34%
    16:00 +10°C° 0 mm 1 mps 724 mmHg 38%
    17:00 +9°C° 0 mm 1 mps 724 mmHg 43%
    18:00 +9°C° 0 mm 1 mps 724 mmHg 44%
    19:00 +8°C° 0 mm 1 mps 724 mmHg 46%
    20:00 +8°C° 0 mm 1 mps 724 mmHg 48%
    21:00 +8°C° 0 mm 1 mps 724 mmHg 49%
    22:00 +7°C° 0 mm 1 mps 724 mmHg 50%
    23:00 +7°C° 0 mm 1 mps 724 mmHg 51%

    Day after tomorrow, 23 November, Thursday

    Time Temperature Precipitation Wind Pressure Humidity
    00:00 +7°C° 0 mm 1 mps 724 mmHg 52%
    01:00 +7°C° 0 mm 1 mps 724 mmHg 52%
    02:00 +6°C° 0 mm 1 mps 724 mmHg 53%
    03:00 +6°C° 0 mm 1 mps 724 mmHg 53%
    04:00 +6°C° 0 mm 1 mps 724 mmHg 54%
    05:00 +6°C° 0 mm 1 mps 724 mmHg 54%
    06:00 +5°C° 0 mm 2 mps 724 mmHg 54%
    07:00 +6°C° 0 mm 2 mps 724 mmHg 54%
    08:00 +6°C° 0 mm 2 mps 724 mmHg 54%
    09:00 +8°C° 0 mm 2 mps 725 mmHg 49%
    10:00 +12°C° 0 mm 2 mps 725 mmHg 43%
    11:00 +14°C° 0 mm 2 mps 725 mmHg 38%
    12:00 +15°C° 0 mm 1 mps 725 mmHg 37%
    13:00 +15°C° 0 mm 1 mps 724 mmHg 36%
    14:00 +16°C° 0 mm 1 mps 724 mmHg 35%
    15:00 +14°C° 0 mm 2 mps 724 mmHg 40%
    16:00 +13°C° 0 mm 2 mps 724 mmHg 45%
    17:00 +12°C° 0 mm 2 mps 724 mmHg 50%
    18:00 +10°C° 0 mm 2 mps 724 mmHg 52%
    19:00 +9°C° 0 mm 2 mps 725 mmHg 54%
    20:00 +9°C° 0 mm 3 mps 725 mmHg 56%
    21:00 +9°C° 0 mm 3 mps 725 mmHg 56%
    22:00 +8°C° 0 mm 3 mps 725 mmHg 56%
    23:00 +8°C° 0 mm 3 mps 725 mmHg 57%

    24 November, Friday

    Time Temperature Precipitation Wind Pressure Humidity
    00:00 +8°C° 0 mm 3 mps 725 mmHg 57%
    01:00 +7°C° 0 mm 3 mps 725 mmHg 57%
    02:00 +7°C° 0 mm 3 mps 725 mmHg 57%
    03:00 +7°C° 0 mm 3 mps 725 mmHg 57%
    04:00 +7°C° 0 mm 3 mps 725 mmHg 57%
    05:00 +7°C° 0 mm 3 mps 724 mmHg 58%
    06:00 +7°C° 0 mm 3 mps 725 mmHg 58%
    07:00 +7°C° 0 mm 3 mps 725 mmHg 58%
    08:00 +7°C° 0 mm 3 mps 725 mmHg 57%
    09:00 +10°C° 0 mm 3 mps 725 mmHg 51%
    10:00 +12°C° 0 mm 3 mps 725 mmHg 45%
    11:00 +14°C° 0 mm 3 mps 725 mmHg 39%
    12:00 +16°C° 0 mm 3 mps 725 mmHg 37%
    13:00 +16°C° 0 mm 3 mps 725 mmHg 35%
    14:00 +17°C° 0 mm 3 mps 725 mmHg 33%
    15:00 +15°C° 0 mm 4 mps 725 mmHg 37%
    16:00 +13°C° 0 mm 4 mps 724 mmHg 42%
    17:00 +12°C° 0 mm 4 mps 724 mmHg 46%
    18:00 +11°C° 0 mm 4 mps 725 mmHg 48%
    19:00 +10°C° 0 mm 4 mps 725 mmHg 50%
    20:00 +10°C° 0 mm 4 mps 725 mmHg 52%
    21:00 +8°C° 0 mm 4 mps 725 mmHg 53%
    22:00 +8°C° 0 mm 4 mps 725 mmHg 54%
    23:00 +7°C° 0 mm 4 mps 726 mmHg 55%

    25 November, Saturday

    Time Temperature Precipitation Wind Pressure Humidity
    00:00 +7°C° 0 mm 4 mps 725 mmHg 57%
    01:00 +7°C° 0 mm 4 mps 725 mmHg 58%
    02:00 +6°C° 0 mm 4 mps 725 mmHg 59%
    03:00 +6°C° 0 mm 4 mps 725 mmHg 60%
    04:00 +6°C° 0 mm 4 mps 725 mmHg 61%
    05:00 +6°C° 0 mm 4 mps 725 mmHg 61%
    06:00 +6°C° 0 mm 4 mps 725 mmHg 61%
    07:00 +6°C° 0 mm 4 mps 725 mmHg 61%
    08:00 +6°C° 0 mm 4 mps 725 mmHg 61%
    09:00 +9°C° 0 mm 3 mps 726 mmHg 54%
    10:00 +11°C° 0 mm 3 mps 726 mmHg 48%
    11:00 +14°C° 0 mm 3 mps 726 mmHg 41%
    12:00 +15°C° 0 mm 2 mps 726 mmHg 39%
    13:00 +16°C° 0 mm 2 mps 726 mmHg 37%
    14:00 +17°C° 0 mm 2 mps 726 mmHg 35%
    15:00 +15°C° 0 mm 2 mps 726 mmHg 40%
    16:00 +14°C° 0 mm 2 mps 726 mmHg 44%
    17:00 +12°C° 0 mm 2 mps 726 mmHg 48%
    18:00 +12°C° 0 mm 2 mps 726 mmHg 50%
    19:00 +10°C° 0 mm 2 mps 726 mmHg 52%
    20:00 +10°C° 0 mm 2 mps 727 mmHg 54%
    21:00 +9°C° 0 mm 2 mps 727 mmHg 55%
    22:00 +9°C° 0 mm 2 mps 727 mmHg 56%
    23:00 +9°C° 0 mm 2 mps 727 mmHg 57%

    26 November, Sunday

    Time Temperature Precipitation Wind Pressure Humidity
    00:00 +8°C° 0 mm 2 mps 727 mmHg 59%
    01:00 +8°C° 0 mm 2 mps 727 mmHg 60%
    02:00 +8°C° 0 mm 3 mps 727 mmHg 61%
    03:00 +8°C° 0 mm 3 mps 727 mmHg 62%
    04:00 +7°C° 0 mm 3 mps 727 mmHg 63%
    05:00 +7°C° 0 mm 3 mps 727 mmHg 63%
    06:00 +7°C° 0 mm 3 mps 727 mmHg 63%
    07:00 +7°C° 0 mm 3 mps 727 mmHg 63%
    08:00 +8°C° 0 mm 3 mps 727 mmHg 63%
    09:00 +10°C° 0 mm 2 mps 727 mmHg 56%
    10:00 +13°C° 0 mm 2 mps 728 mmHg 50%
    11:00 +15°C° 0 mm 2 mps 728 mmHg 43%
    12:00 +16°C° 0 mm 2 mps 727 mmHg 42%
    13:00 +16°C° 0 mm 2 mps 727 mmHg 40%
    14:00 +16°C° 0 mm 2 mps 727 mmHg 39%
    15:00 +15°C° 0 mm 2 mps 727 mmHg 44%
    16:00 +13°C° 0 mm 2 mps 727 mmHg 48%
    17:00 +12°C° 0 mm 2 mps 726 mmHg 53%
    18:00 +10°C° 0 mm 2 mps 726 mmHg 55%
    19:00 +10°C° 0 mm 2 mps 726 mmHg 58%
    20:00 +9°C° 0 mm 2 mps 726 mmHg 60%
    21:00 +9°C° 0 mm 2 mps 726 mmHg 61%
    22:00 +8°C° 0 mm 2 mps 726 mmHg 62%
    23:00 +9°C° 0 mm 1 mps 726 mmHg 63%
    Show more